• In Uzbekistan
  • List of Countries
  • For 7 days
  • Water Temperature
  • Satellite Maps
  • Weather Map
  • Weather Widgets
  • user-avatar
    Login

    Hourly Weather Gayturovo

    Today, 23 October, Tuesday

    Time Temperature Precipitation Wind Pressure Humidity
    00:00 +2°C° 0 mm 3 mps 740 mmHg 81%
    01:00 +1°C° 0 mm 3 mps 739 mmHg 83%
    02:00 +1°C° 0 mm 3 mps 739 mmHg 84%
    03:00 +1°C° 0 mm 3 mps 738 mmHg 84%
    04:00 +1°C° 0 mm 3 mps 737 mmHg 85%
    05:00 +1°C° 0 mm 3 mps 736 mmHg 86%
    06:00 0°C° 0 mm 3 mps 736 mmHg 87%
    07:00 0°C° 0 mm 4 mps 735 mmHg 85%
    08:00 0°C° 0 mm 4 mps 735 mmHg 84%
    09:00 +1°C° 0 mm 4 mps 735 mmHg 82%
    10:00 +3°C° 0 mm 4 mps 734 mmHg 80%
    11:00 +4°C° 0 mm 4 mps 734 mmHg 77%
    12:00 +5°C° 0 mm 4 mps 733 mmHg 75%
    13:00 +5°C° 0.1 mm 4 mps 733 mmHg 76%
    14:00 +5°C° 0.1 mm 4 mps 732 mmHg 77%
    15:00 +5°C° 0.1 mm 4 mps 732 mmHg 79%
    16:00 +4°C° 0.1 mm 4 mps 731 mmHg 81%
    17:00 +4°C° 0.1 mm 3 mps 731 mmHg 84%
    18:00 +4°C° 0.1 mm 3 mps 730 mmHg 86%
    19:00 +4°C° 0 mm 3 mps 730 mmHg 87%
    20:00 +3°C° 0 mm 3 mps 729 mmHg 87%
    21:00 +3°C° 0 mm 3 mps 729 mmHg 88%
    22:00 +3°C° 0 mm 3 mps 728 mmHg 88%
    23:00 +3°C° 0 mm 4 mps 727 mmHg 89%

    Tomorrow, 24 October, Wednesday

    Time Temperature Precipitation Wind Pressure Humidity
    00:00 +3°C° 0 mm 4 mps 726 mmHg 89%
    01:00 +3°C° 0.1 mm 4 mps 726 mmHg 88%
    02:00 +3°C° 0.1 mm 4 mps 725 mmHg 86%
    03:00 +3°C° 0.1 mm 4 mps 724 mmHg 84%
    04:00 +3°C° 0.1 mm 4 mps 723 mmHg 83%
    05:00 +3°C° 0.1 mm 4 mps 722 mmHg 82%
    06:00 +3°C° 0.1 mm 4 mps 722 mmHg 81%
    07:00 +2°C° 0.1 mm 5 mps 721 mmHg 80%
    08:00 +2°C° 0.1 mm 5 mps 720 mmHg 79%
    09:00 +3°C° 0.1 mm 6 mps 720 mmHg 78%
    10:00 +3°C° 0.4 mm 6 mps 719 mmHg 78%
    11:00 +4°C° 0.4 mm 6 mps 719 mmHg 79%
    12:00 +4°C° 0.4 mm 6 mps 718 mmHg 79%
    13:00 +4°C° 1 mm 6 mps 718 mmHg 81%
    14:00 +4°C° 1 mm 6 mps 718 mmHg 83%
    15:00 +5°C° 1 mm 5 mps 718 mmHg 85%
    16:00 +5°C° 0.1 mm 5 mps 718 mmHg 86%
    17:00 +5°C° 0.1 mm 4 mps 718 mmHg 87%
    18:00 +4°C° 0.1 mm 3 mps 718 mmHg 88%
    19:00 +4°C° 0.3 mm 3 mps 718 mmHg 90%
    20:00 +5°C° 0.3 mm 2 mps 718 mmHg 92%
    21:00 +5°C° 0.3 mm 2 mps 718 mmHg 94%
    22:00 +5°C° 0.5 mm 2 mps 718 mmHg 95%
    23:00 +5°C° 0.5 mm 2 mps 717 mmHg 96%

    Day after tomorrow, 25 October, Thursday

    Time Temperature Precipitation Wind Pressure Humidity
    00:00 +6°C° 0.5 mm 1 mps 717 mmHg 97%
    01:00 +5°C° 0.6 mm 2 mps 717 mmHg 97%
    02:00 +5°C° 0.6 mm 2 mps 716 mmHg 97%
    03:00 +5°C° 0.6 mm 2 mps 716 mmHg 97%
    04:00 +4°C° 2.7 mm 3 mps 715 mmHg 97%
    05:00 +4°C° 2.7 mm 4 mps 714 mmHg 96%
    06:00 +3°C° 2.7 mm 5 mps 714 mmHg 95%
    07:00 +3°C° 2.6 mm 5 mps 713 mmHg 93%
    08:00 +3°C° 2.6 mm 5 mps 712 mmHg 92%
    09:00 +5°C° 2.6 mm 5 mps 712 mmHg 90%
    10:00 +3°C° 1 mm 5 mps 711 mmHg 88%
    11:00 +3°C° 1 mm 5 mps 711 mmHg 86%
    12:00 +3°C° 1 mm 5 mps 711 mmHg 84%
    13:00 +3°C° 1.2 mm 7 mps 711 mmHg 83%
    14:00 +1°C° 1.2 mm 8 mps 712 mmHg 82%
    15:00 +1°C° 1.2 mm 10 mps 712 mmHg 82%
    16:00 0°C° 0.7 mm 10 mps 713 mmHg 81%
    17:00 0°C° 0.7 mm 10 mps 714 mmHg 81%
    18:00 -2°C° 0.7 mm 10 mps 715 mmHg 80%
    19:00 -1°C° 0.1 mm 9 mps 716 mmHg 80%
    20:00 -1°C° 0.1 mm 8 mps 717 mmHg 79%
    21:00 -1°C° 0.1 mm 8 mps 718 mmHg 78%
    22:00 -1°C° 0 mm 7 mps 719 mmHg 79%
    23:00 -1°C° 0 mm 7 mps 720 mmHg 79%

    26 October, Friday

    Time Temperature Precipitation Wind Pressure Humidity
    00:00 -1°C° 0 mm 7 mps 720 mmHg 80%
    01:00 -1°C° 0 mm 6 mps 721 mmHg 80%
    02:00 -1°C° 0 mm 6 mps 721 mmHg 80%
    03:00 -1°C° 0 mm 6 mps 722 mmHg 81%
    04:00 -1°C° 0 mm 6 mps 723 mmHg 81%
    05:00 -1°C° 0 mm 6 mps 723 mmHg 81%
    06:00 -1°C° 0 mm 6 mps 724 mmHg 81%
    07:00 -1°C° 0 mm 6 mps 725 mmHg 81%
    08:00 -1°C° 0 mm 6 mps 725 mmHg 80%
    09:00 -1°C° 0 mm 6 mps 726 mmHg 79%
    10:00 -1°C° 0 mm 6 mps 727 mmHg 78%
    11:00 -1°C° 0 mm 6 mps 727 mmHg 77%
    12:00 +1°C° 0 mm 5 mps 728 mmHg 76%
    13:00 +1°C° 0 mm 5 mps 728 mmHg 75%
    14:00 +1°C° 0 mm 5 mps 729 mmHg 75%
    15:00 +2°C° 0 mm 5 mps 729 mmHg 74%
    16:00 +1°C° 0.1 mm 4 mps 730 mmHg 77%
    17:00 +1°C° 0.1 mm 4 mps 730 mmHg 80%
    18:00 +2°C° 0.1 mm 3 mps 730 mmHg 83%
    19:00 +2°C° 0.1 mm 3 mps 731 mmHg 85%
    20:00 0°C° 0.1 mm 4 mps 731 mmHg 86%
    21:00 0°C° 0.1 mm 4 mps 732 mmHg 87%
    22:00 0°C° 0 mm 4 mps 732 mmHg 86%
    23:00 0°C° 0 mm 4 mps 733 mmHg 85%

    27 October, Saturday

    Time Temperature Precipitation Wind Pressure Humidity
    00:00 0°C° 0 mm 4 mps 733 mmHg 85%
    01:00 -1°C° 0 mm 4 mps 734 mmHg 85%
    02:00 -1°C° 0 mm 4 mps 734 mmHg 86%
    03:00 -1°C° 0 mm 4 mps 735 mmHg 87%
    04:00 -1°C° 0 mm 4 mps 735 mmHg 89%
    05:00 -2°C° 0 mm 4 mps 735 mmHg 91%
    06:00 -2°C° 0 mm 4 mps 736 mmHg 93%
    07:00 -1°C° 0 mm 4 mps 736 mmHg 92%
    08:00 -1°C° 0 mm 4 mps 737 mmHg 91%
    09:00 -1°C° 0 mm 4 mps 737 mmHg 90%
    10:00 0°C° 0 mm 4 mps 737 mmHg 86%
    11:00 +1°C° 0 mm 4 mps 738 mmHg 82%
    12:00 +4°C° 0 mm 4 mps 738 mmHg 78%
    13:00 +4°C° 0 mm 4 mps 738 mmHg 77%
    14:00 +5°C° 0 mm 5 mps 738 mmHg 76%
    15:00 +5°C° 0 mm 5 mps 738 mmHg 75%
    16:00 +5°C° 0 mm 5 mps 737 mmHg 78%
    17:00 +3°C° 0 mm 5 mps 737 mmHg 81%
    18:00 +3°C° 0 mm 5 mps 737 mmHg 83%
    19:00 +3°C° 0.1 mm 5 mps 737 mmHg 83%
    20:00 +3°C° 0.1 mm 6 mps 736 mmHg 83%
    21:00 +4°C° 0.1 mm 6 mps 736 mmHg 83%
    22:00 +3°C° 0 mm 6 mps 736 mmHg 84%
    23:00 +3°C° 0 mm 6 mps 736 mmHg 85%

    28 October, Sunday

    Time Temperature Precipitation Wind Pressure Humidity
    00:00 +3°C° 0 mm 5 mps 736 mmHg 86%
    01:00 +5°C° 0.2 mm 5 mps 735 mmHg 88%
    02:00 +5°C° 0.2 mm 5 mps 735 mmHg 90%
    03:00 +5°C° 0.2 mm 5 mps 735 mmHg 92%
    04:00 +6°C° 0.2 mm 5 mps 735 mmHg 93%
    05:00 +6°C° 0.2 mm 5 mps 734 mmHg 93%
    06:00 +7°C° 0.2 mm 5 mps 734 mmHg 93%
    07:00 +7°C° 0.5 mm 5 mps 734 mmHg 93%
    08:00 +8°C° 0.5 mm 5 mps 734 mmHg 93%
    09:00 +8°C° 0.5 mm 5 mps 734 mmHg 93%
    10:00 +8°C° 0.6 mm 5 mps 734 mmHg 92%
    11:00 +9°C° 0.6 mm 6 mps 734 mmHg 90%
    12:00 +9°C° 0.6 mm 6 mps 734 mmHg 89%
    13:00 +10°C° 0.4 mm 6 mps 734 mmHg 88%
    14:00 +10°C° 0.4 mm 6 mps 734 mmHg 88%
    15:00 +10°C° 0.4 mm 6 mps 733 mmHg 87%
    16:00 +10°C° 0.1 mm 6 mps 733 mmHg 86%
    17:00 +10°C° 0.1 mm 7 mps 733 mmHg 85%
    18:00 +10°C° 0.1 mm 7 mps 733 mmHg 84%
    19:00 +11°C° 0.3 mm 7 mps 733 mmHg 84%
    20:00 +11°C° 0.3 mm 7 mps 733 mmHg 84%
    21:00 +11°C° 0.3 mm 7 mps 733 mmHg 84%
    22:00 +11°C° 0 mm 7 mps 733 mmHg 84%
    23:00 +11°C° 0 mm 7 mps 733 mmHg 85%

    29 October, Monday

    Time Temperature Precipitation Wind Pressure Humidity
    00:00 +11°C° 0 mm 7 mps 733 mmHg 86%
    01:00 +11°C° 0.2 mm 7 mps 733 mmHg 86%
    02:00 +11°C° 0.2 mm 7 mps 733 mmHg 86%
    03:00 +11°C° 0.2 mm 6 mps 734 mmHg 87%
    04:00 +11°C° 0 mm 6 mps 734 mmHg 86%
    05:00 +10°C° 0 mm 6 mps 735 mmHg 86%
    06:00 +9°C° 0 mm 6 mps 735 mmHg 85%
    07:00 +8°C° 0 mm 6 mps 736 mmHg 82%
    08:00 +7°C° 0 mm 6 mps 737 mmHg 79%
    09:00 +5°C° 0 mm 6 mps 738 mmHg 76%
    10:00 +5°C° 0 mm 6 mps 739 mmHg 74%
    11:00 +6°C° 0 mm 5 mps 740 mmHg 71%
    12:00 +6°C° 0 mm 5 mps 741 mmHg 68%
    13:00 +6°C° 0 mm 5 mps 742 mmHg 68%
    14:00 +6°C° 0 mm 4 mps 742 mmHg 68%
    15:00 +7°C° 0 mm 4 mps 743 mmHg 68%
    16:00 +7°C° 0 mm 3 mps 743 mmHg 72%
    17:00 +7°C° 0 mm 2 mps 744 mmHg 75%
    18:00 +6°C° 0 mm 2 mps 744 mmHg 79%
    19:00 +7°C° 0 mm 1 mps 745 mmHg 79%
    20:00 +7°C° 0 mm 1 mps 745 mmHg 80%
    21:00 +7°C° 0 mm 1 mps 746 mmHg 81%
    22:00 +7°C° 0.1 mm 1 mps 746 mmHg 81%
    23:00 +7°C° 0.1 mm 1 mps 746 mmHg 82%
    Show more